When you browse on this site, cookies collect data to enhance your experience and personalize the content and advertising you see.
Visit our Privacy Policy to learn more. By continuing to use the site, you agree to this use of cookies and data.
  • Em Portugal
  • Lista de países
  • Para 7 dias
  • Temperatura da água
  • Mapas de satélite
  • Mapa do tempo
  • Widgets de tempo
  • user-avatar
    Iniciar Sessão

    Previsão horária em Biskira

    Hoje, 25 Maio, Sábado

    Tempo Temperatura Precipitação Vento Pressão Humidade
    00:00 +26°C° 0 mm 6 m/s 747 mmHg 57%
    01:00 +25°C° 1.9 mm 5 m/s 747 mmHg 60%
    02:00 +25°C° 1.9 mm 3 m/s 747 mmHg 63%
    03:00 +24°C° 1.9 mm 2 m/s 747 mmHg 66%
    04:00 +24°C° 1 mm 2 m/s 747 mmHg 66%
    05:00 +24°C° 1 mm 3 m/s 747 mmHg 66%
    06:00 +23°C° 0 mm 4 m/s 747 mmHg 64%
    07:00 +23°C° 0.5 mm 4 m/s 748 mmHg 65%
    08:00 +24°C° 0.5 mm 3 m/s 748 mmHg 65%
    09:00 +24°C° 0.5 mm 3 m/s 748 mmHg 66%
    10:00 +24°C° 0.1 mm 3 m/s 747 mmHg 62%
    11:00 +25°C° 0.1 mm 3 m/s 747 mmHg 59%
    12:00 +25°C° 0.1 mm 3 m/s 747 mmHg 55%
    13:00 +26°C° 0.1 mm 2 m/s 747 mmHg 52%
    14:00 +26°C° 0.1 mm 2 m/s 747 mmHg 49%
    15:00 +27°C° 0.1 mm 1 m/s 746 mmHg 46%
    16:00 +27°C° 0.1 mm 1 m/s 746 mmHg 45%
    17:00 +27°C° 0.1 mm 2 m/s 746 mmHg 45%
    18:00 +27°C° 0.1 mm 2 m/s 746 mmHg 44%
    19:00 +26°C° 0.6 mm 3 m/s 747 mmHg 47%
    20:00 +25°C° 0.6 mm 4 m/s 747 mmHg 50%
    21:00 +23°C° 0.6 mm 5 m/s 748 mmHg 53%
    22:00 +23°C° 0.7 mm 5 m/s 748 mmHg 52%
    23:00 +22°C° 0.7 mm 6 m/s 748 mmHg 51%

    Amanhã, 26 Maio, Domingo

    Tempo Temperatura Precipitação Vento Pressão Humidade
    00:00 +22°C° 0.7 mm 6 m/s 748 mmHg 50%
    01:00 +21°C° 0 mm 6 m/s 748 mmHg 50%
    02:00 +21°C° 0 mm 6 m/s 748 mmHg 50%
    03:00 +21°C° 0 mm 6 m/s 747 mmHg 50%
    04:00 +21°C° 0 mm 6 m/s 748 mmHg 50%
    05:00 +21°C° 0 mm 6 m/s 748 mmHg 50%
    06:00 +21°C° 0 mm 7 m/s 748 mmHg 50%
    07:00 +22°C° 0 mm 7 m/s 748 mmHg 47%
    08:00 +23°C° 0 mm 7 m/s 748 mmHg 43%
    09:00 +24°C° 0 mm 8 m/s 748 mmHg 39%
    10:00 +26°C° 0 mm 8 m/s 748 mmHg 37%
    11:00 +27°C° 0 mm 8 m/s 748 mmHg 35%
    12:00 +27°C° 0 mm 8 m/s 748 mmHg 33%
    13:00 +28°C° 0 mm 8 m/s 748 mmHg 32%
    14:00 +28°C° 0 mm 9 m/s 748 mmHg 31%
    15:00 +28°C° 0 mm 9 m/s 748 mmHg 31%
    16:00 +28°C° 0 mm 9 m/s 748 mmHg 33%
    17:00 +27°C° 0 mm 9 m/s 748 mmHg 35%
    18:00 +26°C° 0 mm 9 m/s 748 mmHg 37%
    19:00 +24°C° 0 mm 8 m/s 749 mmHg 40%
    20:00 +23°C° 0 mm 8 m/s 749 mmHg 43%
    21:00 +22°C° 0 mm 8 m/s 750 mmHg 46%
    22:00 +22°C° 0 mm 7 m/s 750 mmHg 47%
    23:00 +21°C° 0 mm 7 m/s 750 mmHg 48%

    Depois de amanhã, 27 Maio, Segunda-feira

    Tempo Temperatura Precipitação Vento Pressão Humidade
    00:00 +21°C° 0 mm 6 m/s 750 mmHg 50%
    01:00 +20°C° 0 mm 6 m/s 750 mmHg 52%
    02:00 +20°C° 0 mm 6 m/s 749 mmHg 53%
    03:00 +20°C° 0 mm 6 m/s 749 mmHg 55%
    04:00 +20°C° 0 mm 6 m/s 749 mmHg 54%
    05:00 +20°C° 0 mm 7 m/s 749 mmHg 53%
    06:00 +20°C° 0 mm 7 m/s 749 mmHg 52%
    07:00 +21°C° 0 mm 6 m/s 750 mmHg 47%
    08:00 +23°C° 0 mm 6 m/s 750 mmHg 43%
    09:00 +25°C° 0 mm 5 m/s 750 mmHg 38%
    10:00 +26°C° 0 mm 5 m/s 750 mmHg 35%
    11:00 +27°C° 0 mm 4 m/s 750 mmHg 33%
    12:00 +28°C° 0 mm 4 m/s 750 mmHg 30%
    13:00 +28°C° 0 mm 4 m/s 750 mmHg 29%
    14:00 +29°C° 0 mm 4 m/s 750 mmHg 28%
    15:00 +29°C° 0 mm 5 m/s 749 mmHg 28%
    16:00 +29°C° 0 mm 5 m/s 749 mmHg 28%
    17:00 +29°C° 0 mm 5 m/s 749 mmHg 29%
    18:00 +29°C° 0 mm 5 m/s 749 mmHg 30%
    19:00 +28°C° 0 mm 5 m/s 750 mmHg 32%
    20:00 +27°C° 0 mm 4 m/s 750 mmHg 35%
    21:00 +27°C° 0 mm 4 m/s 751 mmHg 37%
    22:00 +26°C° 0 mm 3 m/s 751 mmHg 39%
    23:00 +26°C° 0 mm 3 m/s 751 mmHg 41%

    28 Maio, Terça-feira

    Tempo Temperatura Precipitação Vento Pressão Humidade
    00:00 +25°C° 0 mm 3 m/s 751 mmHg 43%
    01:00 +25°C° 0 mm 2 m/s 751 mmHg 44%
    02:00 +24°C° 0 mm 2 m/s 751 mmHg 45%
    03:00 +24°C° 0 mm 1 m/s 751 mmHg 46%
    04:00 +24°C° 0 mm 1 m/s 751 mmHg 43%
    05:00 +24°C° 0 mm 1 m/s 751 mmHg 41%
    06:00 +25°C° 0 mm 1 m/s 751 mmHg 39%
    07:00 +26°C° 0 mm 1 m/s 751 mmHg 37%
    08:00 +27°C° 0 mm 2 m/s 752 mmHg 35%
    09:00 +28°C° 0 mm 2 m/s 752 mmHg 32%
    10:00 +28°C° 0 mm 2 m/s 752 mmHg 31%
    11:00 +29°C° 0 mm 2 m/s 751 mmHg 29%
    12:00 +30°C° 0 mm 2 m/s 751 mmHg 27%
    13:00 +31°C° 0 mm 2 m/s 751 mmHg 26%
    14:00 +31°C° 0 mm 2 m/s 750 mmHg 25%
    15:00 +32°C° 0 mm 2 m/s 750 mmHg 23%
    16:00 +32°C° 0 mm 2 m/s 750 mmHg 23%
    17:00 +32°C° 0 mm 2 m/s 750 mmHg 23%
    18:00 +33°C° 0 mm 3 m/s 750 mmHg 23%
    19:00 +31°C° 0 mm 3 m/s 750 mmHg 25%
    20:00 +30°C° 0 mm 3 m/s 751 mmHg 27%
    21:00 +30°C° 0 mm 3 m/s 751 mmHg 29%
    22:00 +29°C° 0 mm 3 m/s 751 mmHg 30%
    23:00 +29°C° 0 mm 3 m/s 751 mmHg 31%

    29 Maio, Quarta-feira

    Tempo Temperatura Precipitação Vento Pressão Humidade
    00:00 +28°C° 0 mm 2 m/s 751 mmHg 33%
    01:00 +28°C° 0 mm 2 m/s 751 mmHg 33%
    02:00 +28°C° 0 mm 3 m/s 751 mmHg 33%
    03:00 +27°C° 0 mm 3 m/s 751 mmHg 34%
    04:00 +28°C° 0 mm 3 m/s 751 mmHg 33%
    05:00 +28°C° 0 mm 3 m/s 751 mmHg 32%
    06:00 +28°C° 0 mm 3 m/s 751 mmHg 31%
    07:00 +29°C° 0 mm 4 m/s 752 mmHg 29%
    08:00 +30°C° 0 mm 5 m/s 752 mmHg 26%
    09:00 +33°C° 0 mm 5 m/s 752 mmHg 23%
    10:00 +33°C° 0 mm 5 m/s 752 mmHg 22%
    11:00 +34°C° 0 mm 4 m/s 751 mmHg 20%
    12:00 +35°C° 0 mm 4 m/s 751 mmHg 19%
    13:00 +35°C° 0 mm 3 m/s 751 mmHg 19%
    14:00 +36°C° 0 mm 3 m/s 750 mmHg 18%
    15:00 +36°C° 0 mm 2 m/s 750 mmHg 17%
    16:00 +36°C° 0 mm 2 m/s 750 mmHg 17%
    17:00 +36°C° 0 mm 3 m/s 750 mmHg 18%
    18:00 +35°C° 0 mm 3 m/s 750 mmHg 18%
    19:00 +34°C° 0 mm 3 m/s 751 mmHg 22%
    20:00 +34°C° 0 mm 3 m/s 752 mmHg 25%
    21:00 +33°C° 0 mm 4 m/s 752 mmHg 29%
    22:00 +32°C° 0 mm 4 m/s 753 mmHg 33%
    23:00 +30°C° 0 mm 4 m/s 753 mmHg 37%

    30 Maio, Quinta-feira

    Tempo Temperatura Precipitação Vento Pressão Humidade
    00:00 +29°C° 0 mm 4 m/s 753 mmHg 42%
    01:00 +28°C° 0 mm 3 m/s 753 mmHg 45%
    02:00 +27°C° 0 mm 2 m/s 753 mmHg 48%
    03:00 +27°C° 0 mm 2 m/s 754 mmHg 51%
    04:00 +26°C° 0 mm 2 m/s 754 mmHg 50%
    05:00 +26°C° 0 mm 2 m/s 755 mmHg 50%
    06:00 +26°C° 0 mm 3 m/s 755 mmHg 49%
    07:00 +27°C° 0 mm 2 m/s 755 mmHg 45%
    08:00 +28°C° 0 mm 2 m/s 756 mmHg 42%
    09:00 +29°C° 0 mm 2 m/s 756 mmHg 38%
    10:00 +30°C° 0 mm 2 m/s 756 mmHg 35%
    11:00 +30°C° 0 mm 2 m/s 755 mmHg 33%
    12:00 +31°C° 0 mm 2 m/s 755 mmHg 30%
    13:00 +33°C° 0 mm 3 m/s 755 mmHg 27%
    14:00 +33°C° 0 mm 3 m/s 755 mmHg 25%
    15:00 +34°C° 0 mm 3 m/s 754 mmHg 22%
    16:00 +34°C° 0 mm 3 m/s 755 mmHg 22%
    17:00 +34°C° 0 mm 3 m/s 755 mmHg 21%
    18:00 +33°C° 0 mm 3 m/s 755 mmHg 20%
    19:00 +31°C° 0 mm 3 m/s 755 mmHg 24%
    20:00 +30°C° 0 mm 4 m/s 756 mmHg 27%
    21:00 +29°C° 0 mm 5 m/s 756 mmHg 30%
    22:00 +28°C° 0 mm 4 m/s 756 mmHg 32%
    23:00 +28°C° 0 mm 3 m/s 756 mmHg 35%
    Mostrar mais